Location: Mount Cross
(36.6390°N, 79.4878°W)
Time: 16:57:18
(UTC+00:00)

A-11 Canister half - All Passes

Search period start: 31 March 2023 00:00
Search period end: 10 April 2023 00:00
Orbit: 1512 x 1687 km, 47.2° (Epoch: 31 March)

Date Brightness Start Highest point End Pass type
(mag) Time Alt. Az. Time Alt. Az. Time Alt. Az.
31 Mar - 01:04:45 10° WSW 01:14:28 86° NNW 01:24:35 10° ENE visible
31 Mar - 03:11:01 10° W 03:20:31 49° N 03:30:17 10° ENE visible
31 Mar - 05:17:35 10° WNW 05:27:23 52° NNE 05:37:17 10° E visible
31 Mar - 07:22:59 10° WNW 07:33:12 82° SW 07:43:20 10° SE visible
31 Mar - 09:29:28 10° WNW 09:37:14 26° SW 09:44:56 10° S visible
31 Mar - 22:39:37 10° S 22:47:24 29° SE 22:55:25 10° ENE daylight
01 Apr - 00:41:49 10° SW 00:51:30 90° NNW 01:01:35 10° ENE visible
01 Apr - 02:47:57 10° W 02:57:26 49° NNW 03:07:13 10° ENE visible
01 Apr - 04:54:35 10° WNW 05:04:19 51° NNE 05:14:11 10° E visible
01 Apr - 07:00:00 10° WNW 07:10:12 85° SW 07:20:24 10° SE visible
01 Apr - 09:06:16 10° WNW 09:14:20 28° SW 09:22:21 10° S visible
01 Apr - 22:17:01 10° S 22:24:32 27° SE 22:32:15 10° ENE daylight
02 Apr - 00:18:53 10° SW 00:28:31 86° SE 00:38:34 10° ENE visible
02 Apr - 02:24:54 10° W 02:34:22 50° NNW 02:44:10 10° ENE visible
02 Apr - 04:31:34 10° WNW 04:41:14 50° NNE 04:51:05 10° E visible
02 Apr - 06:37:00 10° WNW 06:47:13 89° SW 06:57:26 10° SE visible
02 Apr - 08:43:06 10° WNW 08:51:27 30° SW 08:59:44 10° S visible
02 Apr - 21:54:29 10° S 22:01:40 25° SE 22:09:03 10° ENE daylight
02 Apr - 23:55:59 10° SW 00:05:34 83° SE 00:15:34 10° ENE visible
03 Apr - 02:01:50 10° W 02:11:19 51° NNW 02:21:07 10° ENE visible
03 Apr - 04:08:32 10° WNW 04:18:10 49° N 04:27:57 10° E visible
03 Apr - 06:14:01 10° WNW 06:24:13 88° NNE 06:34:27 10° SE visible
03 Apr - 08:19:58 10° WNW 08:28:32 32° SW 08:37:05 10° S visible
03 Apr - 21:31:59 10° S 21:38:49 23° SE 21:45:49 10° ENE daylight
03 Apr - 23:33:05 10° SW 23:42:36 79° SE 23:52:34 10° ENE daylight
04 Apr - 01:38:47 10° W 01:48:15 52° NNW 01:58:03 10° ENE visible
04 Apr - 03:45:31 10° WNW 03:55:05 48° N 04:04:51 10° E visible
04 Apr - 05:51:03 10° WNW 06:01:13 84° NNE 06:11:27 10° ESE visible
04 Apr - 07:56:51 10° WNW 08:05:38 35° SW 08:14:24 10° S visible
04 Apr - 21:09:32 10° SSE 21:15:58 21° SE 21:22:33 10° E daylight
04 Apr - 23:10:12 10° SW 23:19:40 75° SE 23:29:32 10° ENE daylight
05 Apr - 01:15:45 10° W 01:25:11 54° NNW 01:35:01 10° ENE visible
05 Apr - 03:22:29 10° WNW 03:32:00 47° N 03:41:43 10° E visible
05 Apr - 05:28:03 10° WNW 05:38:13 81° NNE 05:48:27 10° ESE visible
05 Apr - 07:33:45 10° WNW 07:42:44 37° SW 07:51:42 10° SSE visible
05 Apr - 20:47:08 10° SSE 20:53:08 19° ESE 20:59:14 10° E daylight
05 Apr - 22:47:20 10° SW 22:56:44 71° SE 23:06:31 10° ENE daylight
06 Apr - 00:52:42 10° W 01:02:09 55° NNW 01:11:58 10° ENE visible
06 Apr - 02:59:28 10° WNW 03:08:55 47° N 03:18:37 10° E visible
06 Apr - 05:05:05 10° WNW 05:15:12 78° NNE 05:25:26 10° ESE visible
06 Apr - 07:10:41 10° WNW 07:19:48 40° SW 07:28:58 10° SSE visible
06 Apr - 20:24:48 10° SSE 20:30:17 17° ESE 20:35:51 10° E daylight
06 Apr - 22:24:28 10° SW 22:33:48 67° SE 22:43:30 10° ENE daylight
07 Apr - 00:29:40 10° W 00:39:06 57° NNW 00:48:56 10° ENE visible
07 Apr - 02:36:26 10° WNW 02:45:50 46° N 02:55:30 10° ENE visible
07 Apr - 04:42:06 10° WNW 04:52:11 75° NNE 05:02:24 10° ESE visible
07 Apr - 06:47:36 10° WNW 06:56:53 43° SW 07:06:13 10° SSE visible
07 Apr - 20:02:35 10° SSE 20:07:26 15° ESE 20:12:22 10° E daylight
07 Apr - 22:01:38 10° SW 22:10:52 63° SE 22:20:29 10° ENE daylight
08 Apr - 00:06:38 10° W 00:16:04 58° NNW 00:25:54 10° ENE visible
08 Apr - 02:13:24 10° WNW 02:22:45 46° N 02:32:23 10° ENE visible
08 Apr - 04:19:08 10° WNW 04:29:10 72° NNE 04:39:21 10° ESE visible
08 Apr - 06:24:33 10° WNW 06:33:58 46° SW 06:43:25 10° SSE visible
08 Apr - 19:40:29 10° SSE 19:44:37 14° ESE 19:48:46 10° E daylight
08 Apr - 21:38:48 10° SSW 21:47:57 59° SE 21:57:28 10° ENE daylight
08 Apr - 23:43:37 10° WSW 23:53:03 60° NNW 00:02:53 10° ENE daylight
09 Apr - 01:50:22 10° WNW 01:59:40 46° N 02:09:16 10° ENE visible
09 Apr - 03:56:10 10° WNW 04:06:08 69° NNE 04:16:18 10° ESE visible
09 Apr - 06:01:31 10° WNW 06:11:02 49° SW 06:20:38 10° SSE visible
09 Apr - 19:18:38 10° SE 19:21:47 12° ESE 19:24:57 10° E daylight
09 Apr - 21:16:00 10° SSW 21:25:03 56° SE 21:34:26 10° ENE daylight
09 Apr - 23:20:36 10° WSW 23:30:01 62° NNW 23:39:51 10° ENE daylight
